Flag for United Kingdom Weather past 2 weeks in Crawley, England, United Kingdom

Now
57 °F

Clear.


Feels Like: 56 °F
Forecast: 56 / 65 °F
Wind: 6 mph from Southwest

Location: London / Gatwick Airport

Current Time: Aug 22, 2014 at 12:12:38 AM

Latest Report: Aug 21, 2014 at 11:50 PM


Visibility: 10 mi

Pressure: 29.89 "Hg

Humidity: 77%

Dew point: 50 °F

Location of CrawleyLocation

Historic Weather in Crawley — Graph

°F

Crawley temperature yesterday

Maximum temperature yesterday: 64 °F (at 12:50 PM)
Minimum temperature yesterday: 41 °F (at 5:50 AM)
Average temperature yesterday: 55 °F

Past Weeks' High & Low Weather Summary

 TemperatureHumidityPressure
High77 °F (Aug 7, 2:20 PM)100% (Aug 8, 3:50 AM)30.18 "Hg (Aug 8, 3:50 AM)
Low41 °F (Aug 21, 5:50 AM)42% (Aug 20, 4:50 PM)29.33 "Hg (Aug 10, 12:50 PM)
Average60 °F74%29.85 "Hg
* Reported Aug 6 10:20 PM — Aug 21 10:50 PM, Crawley, Weather by CustomWeather, © 2014

Note: Actual official high and low records may vary slightly from our data, if they occured in-between our weather recording intervals... More about our weather records

Advertising

Crawley weather history for previous 24 hours

 ConditionsComfort  
Time TempWeatherWind HumidityBarometerVisibility
10:50 PM
Aug 21
57 °FClear.7 mph77%29.92 "Hg10 mi
10:20 PM57 °FClear.8 mph77%29.92 "Hg10 mi
9:50 PM57 °FClear.7 mph72%29.92 "Hg10 mi
9:20 PM57 °FPassing clouds.7 mph72%29.92 "HgN/A
8:50 PM57 °FSunny.7 mph72%29.92 "Hg10 mi
8:20 PM59 °FSunny.7 mph63%29.92 "Hg10 mi
7:50 PM59 °FPassing clouds.6 mph63%29.92 "HgN/A
7:20 PM59 °FPassing clouds.8 mph63%29.92 "HgN/A
6:50 PM59 °FPassing clouds.10 mph63%29.92 "HgN/A
6:20 PM61 °FPassing clouds.12 mph59%29.95 "HgN/A
5:50 PM61 °FPassing clouds.12 mph59%29.95 "HgN/A
5:20 PM61 °FPassing clouds.10 mph55%29.95 "HgN/A
4:50 PM61 °FScattered clouds.13 mph52%29.95 "HgN/A
4:20 PM63 °FScattered clouds.13 mph52%29.95 "HgN/A
3:50 PM63 °FScattered clouds.9 mph52%29.95 "HgN/A
3:20 PM63 °FPassing clouds.10 mph52%29.98 "HgN/A
2:50 PM61 °FScattered clouds.12 mph59%29.98 "HgN/A
2:20 PM61 °FLight rain. Scattered clouds.14 mph55%29.98 "HgN/A
1:50 PM63 °FPassing clouds.15 mph45%29.98 "HgN/A
1:20 PM63 °FPassing clouds.13 mph52%29.98 "HgN/A
12:50 PM64 °FPassing clouds.12 mph49%30.01 "HgN/A
12:20 PM63 °FPassing clouds.10 mph45%30.01 "HgN/A
11:50 AM63 °FPassing clouds.10 mph49%30.01 "HgN/A
11:20 AM61 °FScattered clouds.9 mph52%30.01 "HgN/A
10:50 AM59 °FPassing clouds.9 mph59%30.01 "HgN/A
10:20 AM59 °FPassing clouds.9 mph63%30.04 "HgN/A
9:50 AM59 °FPassing clouds.8 mph63%30.04 "HgN/A
9:20 AM55 °FPassing clouds.5 mph77%30.04 "HgN/A
8:50 AM54 °FSunny.3 mph82%30.04 "Hg10 mi
8:20 AM52 °FSunny.2 mph82%30.04 "Hg10 mi
7:50 AM48 °FSunny.5 mph87%30.04 "Hg10 mi
7:20 AM48 °FSunny.3 mph87%30.04 "Hg10 mi
6:50 AM45 °FClear.2 mph93%30.04 "Hg10 mi
6:20 AM43 °FClear.No wind93%30.04 "Hg10 mi
5:50 AM41 °FClear.No wind100%30.04 "Hg10 mi
5:20 AM43 °FClear.No wind100%30.04 "Hg10 mi
4:50 AM45 °FHaze.2 mph93%30.04 "Hg3 mi
4:20 AM46 °FClear.3 mph87%30.04 "Hg4 mi
3:50 AM46 °FClear.2 mph87%30.04 "Hg10 mi
3:20 AM46 °FClear.3 mph93%30.04 "Hg10 mi
2:50 AM46 °FClear.5 mph87%30.04 "Hg10 mi
2:20 AM46 °FClear.5 mph93%30.04 "Hg10 mi
1:50 AM48 °FClear.3 mph87%30.07 "Hg10 mi
1:20 AM48 °FClear.No wind87%30.07 "Hg10 mi
12:50 AM48 °FClear.2 mph87%30.07 "Hg10 mi
12:20 AM48 °FClear.2 mph82%30.07 "Hg10 mi
Weather by CustomWeather, © 2014

See weather overviewHow to use our weather pages